INMARSAT 3-F2

Last updated on Mon Oct 20 2025 00:02:45 GMT+0000 (Coordinated Universal Time)

1 24307U 96053A 25292.04072814 .00000129 00000+0 00000+0 0 9995 2 24307 9.3085 56.3326 0006572 149.3709 228.8398 0.99988809106514
UTC large
Height (km)
Speed (km/s)
/
Latitude / Longitude
Inclination (degrees)
Orbital Period (minutes)
Azimuth
Elevation
Range (km)
Doppler Factor

Next 0 passes for location: London (51.5072 / 0.1276)

Sorry there are no passes over London.